• In Deutschland
  • Länderverzeichnis
  • Für 7 Tage
  • Wassertemperatur
  • Satellitenkarten
  • Wetterkarte
  • Widgets
  • user-avatar
    Anmelden

    Stündliche Wetter Qala i Naw

    Heute, 21 Mai, Montag

    Zeit Temperatur Niederschläge Wind Luftdruck Luftfeuchtigkeit
    00:00 +18°C° 0 mm 1 m/S 682 mmHg 30%
    01:00 +16°C° 0 mm 1 m/S 682 mmHg 30%
    02:00 +16°C° 0 mm 1 m/S 682 mmHg 30%
    03:00 +16°C° 0 mm 1 m/S 682 mmHg 31%
    04:00 +15°C° 0 mm 1 m/S 681 mmHg 32%
    05:00 +16°C° 0 mm 1 m/S 682 mmHg 30%
    06:00 +18°C° 0 mm 1 m/S 682 mmHg 27%
    07:00 +20°C° 0 mm 1 m/S 683 mmHg 25%
    08:00 +21°C° 0 mm 1 m/S 683 mmHg 24%
    09:00 +22°C° 0 mm 1 m/S 683 mmHg 24%
    10:00 +23°C° 0 mm 1 m/S 683 mmHg 23%
    11:00 +24°C° 0 mm 2 m/S 683 mmHg 22%
    12:00 +24°C° 0 mm 2 m/S 683 mmHg 21%
    13:00 +25°C° 0 mm 3 m/S 683 mmHg 21%
    14:00 +25°C° 0 mm 3 m/S 683 mmHg 20%
    15:00 +26°C° 0 mm 3 m/S 683 mmHg 20%
    16:00 +26°C° 0 mm 4 m/S 683 mmHg 20%
    17:00 +25°C° 0 mm 3 m/S 683 mmHg 22%
    18:00 +24°C° 0 mm 3 m/S 683 mmHg 24%
    19:00 +23°C° 0 mm 2 m/S 683 mmHg 26%
    20:00 +21°C° 0 mm 2 m/S 683 mmHg 28%
    21:00 +20°C° 0 mm 2 m/S 683 mmHg 30%
    22:00 +20°C° 0 mm 2 m/S 683 mmHg 31%
    23:00 +19°C° 0 mm 2 m/S 683 mmHg 32%

    Morgen, 22 Mai, Dienstag

    Zeit Temperatur Niederschläge Wind Luftdruck Luftfeuchtigkeit
    00:00 +19°C° 0 mm 2 m/S 683 mmHg 33%
    01:00 +19°C° 0 mm 1 m/S 682 mmHg 34%
    02:00 +19°C° 0 mm 1 m/S 682 mmHg 35%
    03:00 +18°C° 0 mm 1 m/S 682 mmHg 36%
    04:00 +17°C° 0 mm 2 m/S 682 mmHg 36%
    05:00 +19°C° 0 mm 1 m/S 682 mmHg 34%
    06:00 +20°C° 0 mm 1 m/S 683 mmHg 31%
    07:00 +21°C° 0 mm 1 m/S 683 mmHg 28%
    08:00 +22°C° 0 mm 1 m/S 683 mmHg 26%
    09:00 +23°C° 0 mm 1 m/S 684 mmHg 25%
    10:00 +25°C° 0 mm 1 m/S 684 mmHg 23%
    11:00 +25°C° 0 mm 2 m/S 684 mmHg 22%
    12:00 +26°C° 0 mm 2 m/S 683 mmHg 21%
    13:00 +27°C° 0 mm 3 m/S 683 mmHg 20%
    14:00 +27°C° 0 mm 3 m/S 683 mmHg 20%
    15:00 +27°C° 0 mm 4 m/S 683 mmHg 20%
    16:00 +27°C° 0 mm 4 m/S 683 mmHg 20%
    17:00 +26°C° 0 mm 4 m/S 683 mmHg 23%
    18:00 +25°C° 0 mm 3 m/S 683 mmHg 25%
    19:00 +24°C° 0 mm 3 m/S 683 mmHg 27%
    20:00 +24°C° 0 mm 2 m/S 683 mmHg 29%
    21:00 +23°C° 0 mm 2 m/S 683 mmHg 31%
    22:00 +22°C° 0 mm 1 m/S 683 mmHg 33%
    23:00 +21°C° 0 mm 1 m/S 683 mmHg 33%

    übermorgen, 23 Mai, Mittwoch

    Zeit Temperatur Niederschläge Wind Luftdruck Luftfeuchtigkeit
    00:00 +20°C° 0 mm 2 m/S 683 mmHg 33%
    01:00 +19°C° 0 mm 2 m/S 682 mmHg 33%
    02:00 +19°C° 0 mm 2 m/S 682 mmHg 34%
    03:00 +19°C° 0 mm 2 m/S 682 mmHg 35%
    04:00 +18°C° 0 mm 2 m/S 682 mmHg 36%
    05:00 +19°C° 0 mm 2 m/S 682 mmHg 34%
    06:00 +20°C° 0 mm 2 m/S 683 mmHg 31%
    07:00 +21°C° 0 mm 2 m/S 683 mmHg 28%
    08:00 +23°C° 0 mm 2 m/S 683 mmHg 26%
    09:00 +24°C° 0 mm 2 m/S 683 mmHg 24%
    10:00 +25°C° 0 mm 1 m/S 683 mmHg 22%
    11:00 +26°C° 0 mm 2 m/S 683 mmHg 21%
    12:00 +27°C° 0 mm 3 m/S 683 mmHg 20%
    13:00 +28°C° 0 mm 3 m/S 683 mmHg 19%
    14:00 +28°C° 0 mm 4 m/S 682 mmHg 19%
    15:00 +28°C° 0 mm 4 m/S 682 mmHg 18%
    16:00 +29°C° 0 mm 4 m/S 681 mmHg 18%
    17:00 +27°C° 0 mm 4 m/S 681 mmHg 20%
    18:00 +26°C° 0 mm 3 m/S 681 mmHg 22%
    19:00 +25°C° 0 mm 2 m/S 681 mmHg 24%
    20:00 +24°C° 0 mm 2 m/S 681 mmHg 25%
    21:00 +24°C° 0 mm 2 m/S 681 mmHg 26%
    22:00 +23°C° 0 mm 2 m/S 681 mmHg 27%
    23:00 +21°C° 0 mm 2 m/S 681 mmHg 28%

    24 Mai, Donnerstag

    Zeit Temperatur Niederschläge Wind Luftdruck Luftfeuchtigkeit
    00:00 +21°C° 0 mm 2 m/S 680 mmHg 29%
    01:00 +20°C° 0 mm 2 m/S 680 mmHg 30%
    02:00 +20°C° 0 mm 2 m/S 680 mmHg 31%
    03:00 +19°C° 0 mm 2 m/S 679 mmHg 31%
    04:00 +19°C° 0 mm 2 m/S 679 mmHg 32%
    05:00 +20°C° 0 mm 2 m/S 680 mmHg 29%
    06:00 +23°C° 0 mm 1 m/S 680 mmHg 27%
    07:00 +24°C° 0 mm 1 m/S 680 mmHg 24%
    08:00 +25°C° 0 mm 2 m/S 681 mmHg 22%
    09:00 +26°C° 0 mm 2 m/S 681 mmHg 20%
    10:00 +28°C° 0 mm 3 m/S 681 mmHg 18%
    11:00 +29°C° 0 mm 3 m/S 680 mmHg 17%
    12:00 +30°C° 0 mm 3 m/S 680 mmHg 16%
    13:00 +30°C° 0 mm 4 m/S 680 mmHg 15%
    14:00 +32°C° 0 mm 4 m/S 679 mmHg 15%
    15:00 +32°C° 0 mm 4 m/S 679 mmHg 16%
    16:00 +32°C° 0 mm 4 m/S 679 mmHg 16%
    17:00 +30°C° 0 mm 4 m/S 679 mmHg 18%
    18:00 +29°C° 0 mm 3 m/S 679 mmHg 20%
    19:00 +28°C° 0 mm 3 m/S 679 mmHg 23%
    20:00 +27°C° 0 mm 2 m/S 679 mmHg 25%
    21:00 +26°C° 0 mm 2 m/S 679 mmHg 27%
    22:00 +26°C° 0 mm 1 m/S 679 mmHg 29%
    23:00 +25°C° 0 mm 1 m/S 679 mmHg 31%

    25 Mai, Freitag

    Zeit Temperatur Niederschläge Wind Luftdruck Luftfeuchtigkeit
    00:00 +24°C° 0 mm 1 m/S 679 mmHg 32%
    01:00 +24°C° 0 mm 1 m/S 678 mmHg 33%
    02:00 +23°C° 0 mm 1 m/S 678 mmHg 34%
    03:00 +22°C° 0 mm 1 m/S 678 mmHg 35%
    04:00 +22°C° 0 mm 1 m/S 678 mmHg 36%
    05:00 +23°C° 0 mm 1 m/S 679 mmHg 33%
    06:00 +24°C° 0 mm 1 m/S 679 mmHg 29%
    07:00 +26°C° 0 mm 1 m/S 680 mmHg 25%
    08:00 +27°C° 0 mm 1 m/S 680 mmHg 23%
    09:00 +28°C° 0 mm 1 m/S 680 mmHg 21%
    10:00 +30°C° 0 mm 2 m/S 680 mmHg 19%
    11:00 +31°C° 0 mm 2 m/S 680 mmHg 18%
    12:00 +31°C° 0 mm 2 m/S 680 mmHg 17%
    13:00 +32°C° 0 mm 2 m/S 680 mmHg 16%
    14:00 +34°C° 0 mm 3 m/S 680 mmHg 16%
    15:00 +34°C° 0 mm 3 m/S 679 mmHg 16%
    16:00 +34°C° 0 mm 4 m/S 679 mmHg 16%
    17:00 +33°C° 0 mm 3 m/S 679 mmHg 18%
    18:00 +30°C° 0 mm 2 m/S 679 mmHg 21%
    19:00 +29°C° 0 mm 2 m/S 679 mmHg 23%
    20:00 +28°C° 0 mm 1 m/S 679 mmHg 25%
    21:00 +27°C° 0 mm 1 m/S 679 mmHg 27%
    22:00 +27°C° 0 mm 1 m/S 679 mmHg 29%
    23:00 +26°C° 0 mm 1 m/S 679 mmHg 29%

    26 Mai, Samstag

    Zeit Temperatur Niederschläge Wind Luftdruck Luftfeuchtigkeit
    00:00 +25°C° 0 mm 1 m/S 678 mmHg 30%
    01:00 +25°C° 0 mm 1 m/S 678 mmHg 30%
    02:00 +24°C° 0,1 mm 1 m/S 678 mmHg 31%
    03:00 +24°C° 0,1 mm 1 m/S 678 mmHg 32%
    04:00 +23°C° 0,1 mm 1 m/S 678 mmHg 33%
    05:00 +25°C° 0 mm 1 m/S 678 mmHg 29%
    06:00 +27°C° 0 mm 1 m/S 679 mmHg 26%
    07:00 +28°C° 0 mm 1 m/S 680 mmHg 22%
    08:00 +30°C° 0 mm 1 m/S 680 mmHg 21%
    09:00 +31°C° 0 mm 2 m/S 680 mmHg 19%
    10:00 +32°C° 0 mm 2 m/S 680 mmHg 17%
    11:00 +34°C° 0 mm 2 m/S 680 mmHg 16%
    12:00 +35°C° 0 mm 3 m/S 680 mmHg 15%
    13:00 +36°C° 0 mm 4 m/S 680 mmHg 14%
    14:00 +36°C° 0 mm 4 m/S 679 mmHg 14%
    15:00 +36°C° 0 mm 4 m/S 679 mmHg 14%
    16:00 +36°C° 0 mm 4 m/S 679 mmHg 14%
    17:00 +35°C° 0 mm 4 m/S 679 mmHg 16%
    18:00 +33°C° 0 mm 3 m/S 679 mmHg 18%
    19:00 +31°C° 0 mm 2 m/S 679 mmHg 20%
    20:00 +30°C° 0 mm 2 m/S 679 mmHg 22%
    21:00 +29°C° 0 mm 2 m/S 679 mmHg 24%
    22:00 +28°C° 0 mm 1 m/S 679 mmHg 25%
    23:00 +27°C° 0 mm 1 m/S 679 mmHg 26%
    Mehr zeigen